Yakutat, AK

12:21 PM AKST on February 11, 2016 (GMT -0900)
Yakutat

Weather History for PAYA - February, 2013

Change the Weather History Date:

Saturday, February 23, 2013

  Actual Average Record
Temperature  
Mean Temperature 35 °F 30 °F  
Max Temperature 38 °F 37 °F 46 °F (1958)
Min Temperature 31 °F 23 °F -5 °F (1982)
Degree Days  
Heating Degree Days 30 35  
Month to date heating degree days 697 816  
Since 1 July heating degree days 6096 5955  
Cooling Degree Days 0    
Month to date cooling degree days 0  
Year to date cooling degree days 0  
Moisture  
Dew Point 31 °F    
Average Humidity 0    
Maximum Humidity 0    
Minimum Humidity 0    
Precipitation  
Precipitation 0.29 in 0.38 in 3.84 in (1997)
Month to date precipitation 12.96 8.83  
Year to date precipitation 24.73 22.49  
Snow  
Snow 6.10 in 0.90 in 10.10 in (1984)
Month to date snowfall 37.5 22.7  
Since 1 July snowfall 107.9 97.7  
Snow Depth 11.00 in    
Sea Level Pressure  
Sea Level Pressure 29.53 in    
Wind  
Wind Speed 7 mph (ESE)    
Max Wind Speed 26 mph    
Max Gust Speed 33 mph    
Visibility 4 miles    
Events Fog , Snow    
T = Trace of Precipitation, MM = Missing Value Source: NWS Daily Summary

Daily Weather History Graph

Daily Weather History Graph

Search for Another Location

Airport or City:

Trip Planner

Search our weather history database for the weather conditions in past years. The results will help you decide how hot, cold, wet, or windy it might be!

Date:

Astronomy

Feb. 23, 2013 Rise Set
Actual Time 7:31 AM AKST 5:33 PM AKST
Civil Twilight 6:49 AM AKST 6:15 PM AKST
Nautical Twilight 6:02 AM AKST 7:02 PM AKST
Astronomical Twilight 5:14 AM AKST 7:50 PM AKST
Moon 3:38 PM AKST (2/23) 6:17 AM AKST (2/23)
Length of Visible Light 11h 25m
Length of Day
10h 01m
Waxing Gibbous, 96% of the Moon is Illuminated
Feb 23
Waxing Gibbous
Feb 25
Full
Mar 4
Last Quarter
Mar 11
New
Mar 19
First Quarter

Hourly Weather History & Observations

Time (AKST) Temp. Windchill Dew Point Humidity Pressure Visibility Wind Dir Wind Speed Gust Speed Precip Events Conditions
12:53 AM 33.1 °F - 32.0 °F 96% 29.54 in 5.0 mi Calm Calm - 0.00 in Snow Light Snow
1:03 AM 33.8 °F - 30.2 °F 87% 29.54 in 2.5 mi Calm Calm - 0.00 in Snow Light Snow
1:18 AM 33.8 °F - 32.0 °F 93% 29.54 in 3.0 mi Calm Calm - 0.00 in Snow Light Snow
1:27 AM 33.8 °F - 33.8 °F 100% 29.55 in 5.0 mi Calm Calm - 0.00 in Snow Light Snow
1:53 AM 32.0 °F - 32.0 °F 100% 29.56 in 6.0 mi Calm Calm - 0.00 in   Overcast
2:36 AM 32.0 °F - 30.2 °F 93% 29.58 in 2.5 mi Calm Calm - 0.01 in Snow Light Snow
2:44 AM 32.0 °F 27.5 °F 32.0 °F 100% 29.58 in 1.8 mi Variable 4.6 mph - 0.03 in Snow Light Snow
2:46 AM 32.0 °F 27.5 °F 32.0 °F 100% 29.58 in 2.0 mi SSE 4.6 mph - 0.04 in Snow Light Snow
2:51 AM 33.8 °F - 30.2 °F 87% 29.58 in 4.0 mi Calm Calm - 0.04 in Snow Light Snow
3:05 AM 33.8 °F - 30.2 °F 87% 29.58 in 9.0 mi Calm Calm - 0.00 in   Overcast
3:53 AM 32.0 °F 27.5 °F 30.0 °F 92% 29.57 in 10.0 mi East 4.6 mph - 0.00 in   Overcast
4:53 AM 32.0 °F 26.4 °F 30.0 °F 92% 29.59 in 10.0 mi East 5.8 mph - N/A   Overcast
5:53 AM 32.0 °F 26.4 °F 30.0 °F 92% 29.59 in 10.0 mi SE 5.8 mph - N/A   Overcast
6:53 AM 32.0 °F 26.4 °F 30.0 °F 92% 29.58 in 10.0 mi East 5.8 mph - 0.00 in   Overcast
7:15 AM 32.0 °F 27.5 °F 30.2 °F 93% 29.58 in 2.5 mi ESE 4.6 mph - 0.00 in Snow Light Snow
7:30 AM 32.0 °F 27.5 °F 30.2 °F 93% 29.58 in 3.0 mi East 4.6 mph - 0.00 in Snow Light Snow
7:46 AM 32.0 °F 26.4 °F 30.2 °F 93% 29.57 in 1.8 mi East 5.8 mph - 0.00 in Snow Light Snow
7:53 AM 32.0 °F 25.6 °F 30.0 °F 92% 29.58 in 1.2 mi ESE 6.9 mph - 0.00 in Snow Light Snow
8:02 AM 32.0 °F 25.6 °F 30.2 °F 93% 29.58 in 1.0 mi SE 6.9 mph - 0.01 in Snow Light Snow
8:04 AM 32.0 °F 26.4 °F 30.2 °F 93% 29.58 in 0.8 mi SE 5.8 mph - 0.01 in Snow Light Snow
8:27 AM 32.0 °F 25.6 °F 30.2 °F 93% 29.57 in 1.0 mi ESE 6.9 mph - 0.02 in Snow Light Snow
8:35 AM 32.0 °F 24.2 °F 30.2 °F 93% 29.57 in 1.5 mi ESE 9.2 mph - 0.02 in Snow Light Snow
8:38 AM 32.0 °F 24.2 °F 30.2 °F 93% 29.57 in 3.0 mi ESE 9.2 mph - 0.02 in Snow Light Snow
8:51 AM 32.0 °F 24.8 °F 30.2 °F 93% 29.56 in 2.5 mi East 8.1 mph - 0.02 in Snow Light Snow
8:53 AM 32.0 °F 24.8 °F 30.9 °F 96% 29.57 in 2.5 mi East 8.1 mph - 0.02 in Snow Light Snow
8:56 AM 32.0 °F 24.2 °F 30.2 °F 93% 29.56 in 1.2 mi ESE 9.2 mph - 0.00 in Snow Light Snow
8:59 AM 32.0 °F 25.6 °F 30.2 °F 93% 29.56 in 0.8 mi ESE 6.9 mph - 0.00 in Snow Light Snow
9:09 AM 32.0 °F 27.5 °F 30.2 °F 93% 29.56 in 0.2 mi ESE 4.6 mph - 0.00 in Fog , Snow Snow
9:16 AM 32.0 °F 27.5 °F 30.2 °F 93% 29.56 in 0.5 mi East 4.6 mph - 0.01 in Fog , Snow Snow
9:22 AM 32.0 °F 27.5 °F 30.2 °F 93% 29.55 in 0.2 mi East 4.6 mph - 0.01 in Fog , Snow Heavy Snow
9:37 AM 32.0 °F 24.8 °F 30.2 °F 93% 29.55 in 0.5 mi East 8.1 mph - 0.03 in Fog , Snow Snow
9:53 AM 32.0 °F 25.6 °F 30.9 °F 96% 29.54 in 0.8 mi East 6.9 mph - 0.04 in Snow Light Snow
9:55 AM 32.0 °F 26.4 °F 30.2 °F 93% 29.54 in 1.5 mi East 5.8 mph - 0.00 in Snow Light Snow
10:05 AM 32.0 °F 25.6 °F 30.2 °F 93% 29.54 in 0.8 mi East 6.9 mph - 0.00 in Snow Light Snow
10:20 AM 33.8 °F 25.3 °F 30.2 °F 87% 29.53 in 1.5 mi SE 11.5 mph 23.0 mph 0.01 in Snow Light Snow
10:32 AM 32.0 °F 24.2 °F 30.2 °F 93% 29.52 in 0.8 mi ESE 9.2 mph 18.4 mph 0.01 in Snow Light Snow
10:53 AM 32.0 °F 23.6 °F 30.9 °F 96% 29.51 in 0.5 mi East 10.4 mph 16.1 mph 0.02 in Fog , Snow Snow
11:19 AM 32.0 °F 23.6 °F 30.2 °F 93% 29.49 in 0.2 mi East 10.4 mph 18.4 mph 0.01 in Fog , Snow Heavy Snow
11:30 AM 32.0 °F 23.0 °F 30.2 °F 93% 29.48 in 0.5 mi East 11.5 mph 18.4 mph 0.01 in Fog , Snow Snow
11:38 AM 32.0 °F 22.5 °F 30.2 °F 93% 29.48 in 0.2 mi East 12.7 mph - 0.02 in Fog , Snow Heavy Snow
11:53 AM 32.0 °F 22.5 °F 30.9 °F 96% 29.47 in 0.2 mi East 12.7 mph - 0.02 in Fog , Snow Heavy Snow
12:07 PM 32.0 °F 23.6 °F 30.2 °F 93% 29.46 in 0.2 mi East 10.4 mph 17.3 mph 0.01 in Fog , Snow Snow
12:24 PM 32.0 °F 23.0 °F 30.2 °F 93% 29.44 in 0.2 mi East 11.5 mph - 0.03 in Fog , Snow Heavy Snow
12:36 PM 32.0 °F 23.6 °F 30.2 °F 93% 29.44 in 0.2 mi East 10.4 mph - 0.03 in Fog , Snow Heavy Snow
12:49 PM 32.0 °F 23.6 °F 30.2 °F 93% 29.43 in 0.2 mi East 10.4 mph 17.3 mph 0.05 in Fog , Snow Heavy Snow
12:53 PM 32.0 °F 23.6 °F 32.0 °F 100% 29.43 in 0.2 mi East 10.4 mph - 0.05 in Fog , Snow Heavy Snow
1:40 PM 33.8 °F 25.8 °F 32.0 °F 93% 29.40 in 0.5 mi SE 10.4 mph 23.0 mph 0.06 in Fog , Snow Light Snow
1:45 PM 33.8 °F 24.3 °F 32.0 °F 93% 29.40 in 7.0 mi SSE 13.8 mph 23.0 mph 0.06 in   Overcast
1:53 PM 35.1 °F 25.5 °F 33.1 °F 92% 29.40 in 7.0 mi SW 15.0 mph 21.9 mph 0.06 in   Overcast
2:06 PM 35.6 °F 26.6 °F 32.0 °F 87% 29.41 in 10.0 mi WSW 13.8 mph 24.2 mph N/A   Overcast
2:53 PM 37.0 °F 27.4 °F 32.0 °F 82% 29.46 in 10.0 mi WSW 17.3 mph 23.0 mph 0.01 in   Mostly Cloudy
3:53 PM 37.0 °F 28.5 °F 30.9 °F 79% 29.50 in 10.0 mi WSW 13.8 mph - N/A   Partly Cloudy
4:32 PM 35.6 °F 31.7 °F 32.0 °F 87% 29.52 in 10.0 mi West 4.6 mph 20.7 mph N/A   Overcast
4:45 PM 35.6 °F - 32.0 °F 87% 29.52 in 10.0 mi Calm Calm - N/A   Overcast
4:53 PM 35.1 °F 32.2 °F 32.0 °F 89% 29.53 in 8.0 mi NW 3.5 mph - 0.00 in   Overcast
5:39 PM 33.8 °F - 33.8 °F 100% 29.54 in 10.0 mi Calm Calm - 0.00 in   Overcast
5:46 PM 33.8 °F 29.6 °F 33.8 °F 100% 29.54 in 10.0 mi East 4.6 mph - 0.00 in   Overcast
5:53 PM 34.0 °F - 32.0 °F 92% 29.55 in 10.0 mi Calm Calm - 0.00 in   Overcast
6:53 PM 34.0 °F 31.0 °F 30.9 °F 89% 29.56 in 8.0 mi North 3.5 mph - 0.01 in Snow Light Snow
7:53 PM 33.1 °F 30.0 °F 30.9 °F 92% 29.57 in 10.0 mi East 3.5 mph - 0.00 in   Mostly Cloudy
8:53 PM 33.1 °F 27.7 °F 30.9 °F 92% 29.56 in 7.0 mi East 5.8 mph - 0.01 in Snow Light Snow
9:53 PM 32.0 °F 27.5 °F 30.9 °F 96% 29.55 in 10.0 mi East 4.6 mph - 0.00 in   Overcast
10:53 PM 33.1 °F 28.7 °F 30.0 °F 89% 29.55 in 8.0 mi ESE 4.6 mph - 0.00 in Snow Light Snow
11:28 PM 33.8 °F 27.7 °F 30.2 °F 87% 29.53 in 8.0 mi East 6.9 mph - 0.01 in   Overcast
11:53 PM 34.0 °F 27.2 °F 32.0 °F 92% 29.52 in 5.0 mi East 8.1 mph - 0.01 in Snow Light Snow